CW9114 Weather Reports


Display with metric or nautical units.
time (UTC)temp
F
wind
direction
speed
MPH
gust
MPH
rain 1hr
in
rain 24hr
in
rain mn
in
humidity
%
barometer
mb
20260902053014 68 360 0.0 3.0 0.00 0.00 0.00 69 1012.2
20260902051525 68 360 0.0 1.0 0.00 0.00 0.00 69 1012.0
20260902050006 67 360 0.0 1.0 0.00 0.00 0.00 69 1012.0
20260902044508 68 360 0.0 3.0 0.00 0.00 0.00 69 1012.0
20260902043011 68 360 0.0 1.0 0.00 0.00 0.00 68 1012.0
20260902041519 67 360 0.0 3.0 0.00 0.00 0.00 69 1012.1
20260902040028 67 360 0.0 3.0 0.00 0.00 0.00 71 1012.2
20260902034508 67 360 0.0 2.0 0.00 0.00 0.00 73 1012.1
20260902033011 66 360 0.0 2.0 0.00 0.00 0.00 76 1012.0
20260902031536 66 360 0.0 1.0 0.00 0.00 0.00 77 1011.9
20260902030020 66 360 0.0 1.0 0.00 0.00 0.00 78 1011.9
20260902024529 66 360 0.0 1.0 0.00 0.00 0.00 79 1011.7
20260902023015 66 360 0.0 1.0 0.00 0.00 0.00 78 1011.6
20260902021512 67 360 0.0 0.0 0.00 0.00 0.00 77 1011.6
20260902020018 68 360 0.0 1.0 0.00 0.00 0.00 77 1011.7
20260902014523 68 360 0.0 1.0 0.00 0.00 0.00 74 1011.7
20260902013032 68 360 0.0 1.0 0.00 0.00 0.00 73 1011.6
20260902011510 69 360 0.0 1.0 0.00 0.00 0.00 73 1011.4
20260902010016 70 360 0.0 1.0 0.00 0.00 0.00 69 1011.2
20260902004520 71 360 0.0 0.0 0.00 0.00 0.00 67 1011.0
20260902003027 71 360 0.0 1.0 0.00 0.00 0.00 67 1011.0
20260902001529 72 168 0.0 0.0 0.00 0.00 0.00 65 1011.2
20260902000013 73 179 0.0 1.0 0.00 0.00 0.00 65 1011.2
20260901234517 74 360 0.0 1.0 0.00 0.00 0.00 64 1011.0
20260901233028 76 360 0.0 1.0 0.00 0.00 0.00 63 1010.9
20260901231534 77 184 0.0 0.0 0.00 0.00 0.00 61 1010.8
20260901230031 78 169 0.0 0.0 0.00 0.00 0.00 60 1010.8
20260901224513 79 168 0.0 0.0 0.00 0.00 0.00 59 1010.7
20260901223018 79 169 0.0 0.0 0.00 0.00 0.00 55 1010.8
20260901221525 80 172 0.0 2.0 0.00 0.00 0.00 51 1010.7
20260901220032 81 107 0.0 2.0 0.00 0.00 0.00 53 1010.5
20260901214536 81 242 0.0 2.0 0.00 0.00 0.00 53 1010.3
20260901213024 81 56 0.0 5.0 0.00 0.00 0.00 50 1010.3
20260901211525 81 18 0.0 5.0 0.00 0.00 0.00 49 1010.6
20260901210027 83 172 1.0 7.0 0.00 0.00 0.00 48 1010.7
20260901204512 83 64 0.0 1.0 0.00 0.00 0.00 53 1010.3
20260901203011 84 46 1.0 5.0 0.00 0.00 0.00 53 1010.2
20260901201519 84 44 0.0 3.0 0.00 0.00 0.00 52 1010.2
20260901200028 84 76 1.0 3.0 0.00 0.00 0.00 51 1010.6
20260901194506 84 60 1.0 4.0 0.00 0.00 0.00 50 1010.9
20260901193008 85 248 0.0 4.0 0.00 0.00 0.00 51 1011.0
20260901191517 86 304 0.0 2.0 0.00 0.00 0.00 51 1011.0
20260901190025 87 358 0.0 4.0 0.00 0.00 0.00 48 1011.2
20260901184526 88 13 0.0 2.0 0.00 0.00 0.00 49 1011.3
20260901183019 89 264 0.0 4.0 0.00 0.00 0.00 44 1011.3
20260901181514 91 38 0.0 5.0 0.00 0.00 0.00 39 1011.3
20260901180020 90 340 1.0 7.0 0.00 0.00 0.00 37 1011.5
20260901174523 90 312 1.0 5.0 0.00 0.00 0.00 37 1011.6
20260901173029 89 248 0.0 9.0 0.00 0.00 0.00 39 1011.8
20260901171507 89 335 0.0 6.0 0.00 0.00 0.00 39 1011.9
20260901170022 88 165 1.0 5.0 0.00 0.00 0.00 42 1011.9
20260901164518 87 348 0.0 4.0 0.00 0.00 0.00 42 1012.0
20260901163031 86 348 0.0 4.0 0.00 0.00 0.00 47 1012.0
20260901161534 85 225 0.0 2.0 0.00 0.00 0.00 50 1012.2
20260901160012 83 232 0.0 2.0 0.00 0.00 0.00 52 1012.4
20260901154514 80 173 0.0 0.0 0.00 0.00 0.00 54 1012.6
20260901153028 78 260 0.0 0.0 0.00 0.00 0.00 68 1012.4
20260901151526 74 183 0.0 0.0 0.00 0.00 0.00 79 1012.4
20260901150029 72 357 0.0 0.0 0.00 0.00 0.00 94 1012.8
20260901144512 71 341 0.0 0.0 0.00 0.00 0.00 97 1012.8
20260901143019 71 146 0.0 0.0 0.00 0.00 0.00 97 1012.7
20260901141532 69 188 0.0 0.0 0.00 0.00 0.00 97 1012.8
20260901140028 67 241 0.0 1.0 0.00 0.00 0.00 97 1012.8
20260901134532 66 242 0.0 0.0 0.00 0.00 0.00 97 1013.0
20260901133018 64 360 0.0 0.0 0.00 0.00 0.00 97 1012.9
20260901131523 63 360 0.0 0.0 0.00 0.00 0.00 97 1012.9
20260901130024 62 360 0.0 0.0 0.00 0.00 0.00 97 1012.9
20260901124530 61 360 0.0 0.0 0.00 0.00 0.00 97 1012.9
20260901123037 60 360 0.0 0.0 0.00 0.00 0.00 97 1012.9
20260901121519 60 360 0.0 0.0 0.00 0.00 0.00 96 1013.0
20260901120023 60 360 0.0 0.0 0.00 0.00 0.00 96 1012.9
20260901114527 60 360 0.0 0.0 0.00 0.00 0.00 96 1012.8
20260901113034 60 360 0.0 0.0 0.00 0.00 0.00 96 1012.8
20260901111534 60 360 0.0 0.0 0.00 0.00 0.00 96 1012.7
20260901110017 60 360 0.0 0.0 0.00 0.00 0.00 96 1012.5
20260901104525 60 360 0.0 0.0 0.00 0.00 0.00 96 1012.5
20260901103027 61 360 0.0 0.0 0.00 0.00 0.00 96 1012.4
20260901101533 61 360 0.0 0.0 0.00 0.00 0.00 96 1012.4
20260901100034 61 360 0.0 0.0 0.00 0.00 0.00 96 1012.5
20260901094523 61 360 0.0 0.0 0.00 0.00 0.00 96 1012.5
20260901093034 61 360 0.0 1.0 0.00 0.00 0.00 96 1012.6
20260901091533 61 360 0.0 1.0 0.00 0.00 0.00 96 1012.5
20260901090017 62 360 0.0 1.0 0.00 0.01 0.00 96 1012.4
20260901084517 62 360 0.0 0.0 0.00 0.02 0.00 96 1012.4
20260901083026 62 360 0.0 0.0 0.00 0.02 0.00 96 1012.3
20260901081506 62 360 0.0 0.0 0.00 0.02 0.00 96 1012.4
20260901080008 62 360 0.0 0.0 0.00 0.02 0.00 96 1012.4
20260901074516 63 360 0.0 0.0 0.00 0.02 0.00 96 1012.4
20260901073033 63 360 0.0 0.0 0.00 0.02 0.00 96 1012.3
20260901071530 64 360 0.0 2.0 0.00 0.02 0.00 96 1012.1
20260901070006 64 360 0.0 0.0 0.00 0.02 0.00 96 1012.3
20260901064515 64 360 0.0 0.0 0.00 0.02 0.00 96 1012.2
20260901063022 64 360 0.0 0.0 0.00 0.02 0.00 95 1012.4
20260901061528 64 360 0.0 0.0 0.00 0.02 0.00 95 1012.6
20260901060039 65 360 0.0 0.0 0.00 0.02 0.00 95 1012.7
20260901054531 66 360 0.0 0.0 0.00 0.02 0.00 96 1012.7